Location: Camp at the Woods
(43.2055°N, 93.0905°W)
Time: 07:58:17
(UTC+00:00)

Cosmos 2227 Rocket - Pass Details

Date: 05 December 2023
Orbit: 838 x 845 km, 71.0° (Epoch: 29 February)

Event Time Altitude Azimuth Distance (km) Brightness Sun altitude
Rises 23:01:13 0° 231° (SW) 3,384 7.4 -4.7°
Reaches altitude 10° 23:03:53 10° 240° (WSW) 2,452 6.6 -5.1°
Maximum altitude 23:08:57 33° 304° (NW) 1,372 3.7 -5.9°
Drops below altitude 10° 23:14:02 10° 9° (N) 2,462 4.3 -6.8°
Sets 23:16:44 0° 19° (NNE) 3,399 4.9 -7.2°
